When you browse on this site, cookies collect data to enhance your experience and personalize the content and advertising you see.
Visit our Privacy Policy to learn more. By continuing to use the site, you agree to this use of cookies and data.
  • In Österreich
  • Länderverzeichnis
  • Für 7 Tage
  • Wassertemperatur
  • Wetterkarte
  • News
  • Widgets
  • user-avatar
    Anmelden

    Stündliche Wetter Kvandzhu

    Heute, 5 April, Sonntag

    Zeit Temperatur Niederschläge Wind Luftdruck Luftfeuchtigkeit
    00:00 +2°C° 0 mm 3 m/S 762 mmHg 56%
    01:00 +2°C° 0 mm 3 m/S 762 mmHg 55%
    02:00 +3°C° 0 mm 2 m/S 762 mmHg 55%
    03:00 +2°C° 0 mm 2 m/S 762 mmHg 55%
    04:00 +1°C° 0 mm 2 m/S 762 mmHg 55%
    05:00 +2°C° 0 mm 1 m/S 763 mmHg 55%
    06:00 +3°C° 0 mm 2 m/S 763 mmHg 48%
    07:00 +5°C° 0 mm 2 m/S 763 mmHg 40%
    08:00 +7°C° 0 mm 2 m/S 763 mmHg 33%
    09:00 +9°C° 0 mm 3 m/S 763 mmHg 30%
    10:00 +10°C° 0 mm 3 m/S 763 mmHg 27%
    11:00 +12°C° 0 mm 3 m/S 763 mmHg 24%
    12:00 +12°C° 0 mm 4 m/S 763 mmHg 26%
    13:00 +12°C° 0 mm 5 m/S 762 mmHg 29%
    14:00 +12°C° 0 mm 5 m/S 761 mmHg 31%
    15:00 +11°C° 0 mm 4 m/S 762 mmHg 34%
    16:00 +10°C° 0 mm 4 m/S 762 mmHg 37%
    17:00 +8°C° 0 mm 4 m/S 762 mmHg 41%
    18:00 +7°C° 0 mm 3 m/S 762 mmHg 48%
    19:00 +5°C° 0 mm 2 m/S 762 mmHg 55%
    20:00 +4°C° 0 mm 1 m/S 763 mmHg 62%
    21:00 +4°C° 0 mm 1 m/S 763 mmHg 65%
    22:00 +3°C° 0 mm 1 m/S 763 mmHg 67%
    23:00 +2°C° 0 mm 0 m/S 763 mmHg 70%

    Morgen, 6 April, Montag

    Zeit Temperatur Niederschläge Wind Luftdruck Luftfeuchtigkeit
    00:00 +2°C° 0 mm 0 m/S 763 mmHg 71%
    01:00 +3°C° 0 mm 1 m/S 762 mmHg 71%
    02:00 +2°C° 0 mm 1 m/S 762 mmHg 72%
    03:00 +2°C° 0 mm 1 m/S 762 mmHg 72%
    04:00 +2°C° 0 mm 1 m/S 762 mmHg 72%
    05:00 +2°C° 0 mm 1 m/S 762 mmHg 72%
    06:00 +4°C° 0 mm 1 m/S 762 mmHg 61%
    07:00 +7°C° 0 mm 1 m/S 762 mmHg 51%
    08:00 +10°C° 0 mm 1 m/S 762 mmHg 41%
    09:00 +12°C° 0 mm 2 m/S 762 mmHg 35%
    10:00 +13°C° 0 mm 2 m/S 762 mmHg 29%
    11:00 +15°C° 0 mm 2 m/S 762 mmHg 23%
    12:00 +16°C° 0 mm 3 m/S 761 mmHg 25%
    13:00 +16°C° 0 mm 3 m/S 761 mmHg 26%
    14:00 +15°C° 0 mm 4 m/S 760 mmHg 27%
    15:00 +14°C° 0 mm 3 m/S 760 mmHg 32%
    16:00 +12°C° 0 mm 3 m/S 760 mmHg 37%
    17:00 +11°C° 0 mm 3 m/S 760 mmHg 42%
    18:00 +10°C° 0 mm 2 m/S 760 mmHg 47%
    19:00 +9°C° 0 mm 2 m/S 760 mmHg 51%
    20:00 +8°C° 0 mm 1 m/S 761 mmHg 55%
    21:00 +8°C° 0 mm 1 m/S 760 mmHg 56%
    22:00 +8°C° 0 mm 1 m/S 760 mmHg 56%
    23:00 +7°C° 0 mm 1 m/S 760 mmHg 57%

    übermorgen, 7 April, Dienstag

    Zeit Temperatur Niederschläge Wind Luftdruck Luftfeuchtigkeit
    00:00 +7°C° 0 mm 1 m/S 760 mmHg 57%
    01:00 +6°C° 0 mm 0 m/S 760 mmHg 57%
    02:00 +6°C° 0 mm 0 m/S 759 mmHg 56%
    03:00 +5°C° 0 mm 0 m/S 759 mmHg 58%
    04:00 +5°C° 0 mm 0 m/S 759 mmHg 60%
    05:00 +4°C° 0 mm 0 m/S 759 mmHg 62%
    06:00 +8°C° 0 mm 1 m/S 759 mmHg 57%
    07:00 +10°C° 0 mm 1 m/S 759 mmHg 51%
    08:00 +12°C° 0 mm 1 m/S 759 mmHg 46%
    09:00 +14°C° 0 mm 2 m/S 759 mmHg 42%
    10:00 +16°C° 0 mm 3 m/S 759 mmHg 37%
    11:00 +17°C° 0 mm 5 m/S 759 mmHg 33%
    12:00 +17°C° 0 mm 5 m/S 758 mmHg 36%
    13:00 +17°C° 0 mm 5 m/S 758 mmHg 40%
    14:00 +16°C° 0 mm 5 m/S 757 mmHg 43%
    15:00 +15°C° 0 mm 5 m/S 757 mmHg 50%
    16:00 +14°C° 0 mm 4 m/S 757 mmHg 57%
    17:00 +13°C° 0 mm 4 m/S 757 mmHg 63%
    18:00 +11°C° 0 mm 3 m/S 757 mmHg 73%
    19:00 +9°C° 0 mm 2 m/S 758 mmHg 82%
    20:00 +9°C° 0 mm 1 m/S 758 mmHg 92%
    21:00 +8°C° 0 mm 1 m/S 758 mmHg 92%
    22:00 +8°C° 0 mm 1 m/S 758 mmHg 93%
    23:00 +8°C° 0 mm 1 m/S 758 mmHg 93%

    8 April, Mittwoch

    Zeit Temperatur Niederschläge Wind Luftdruck Luftfeuchtigkeit
    00:00 +7°C° 0 mm 1 m/S 758 mmHg 90%
    01:00 +7°C° 0 mm 1 m/S 758 mmHg 88%
    02:00 +6°C° 0 mm 1 m/S 758 mmHg 85%
    03:00 +6°C° 0 mm 1 m/S 758 mmHg 83%
    04:00 +5°C° 0 mm 1 m/S 759 mmHg 81%
    05:00 +5°C° 0 mm 1 m/S 759 mmHg 79%
    06:00 +6°C° 0 mm 2 m/S 759 mmHg 66%
    07:00 +8°C° 0 mm 3 m/S 760 mmHg 52%
    08:00 +10°C° 0 mm 4 m/S 760 mmHg 38%
    09:00 +12°C° 0 mm 4 m/S 760 mmHg 34%
    10:00 +13°C° 0 mm 5 m/S 760 mmHg 29%
    11:00 +14°C° 0 mm 5 m/S 760 mmHg 24%
    12:00 +15°C° 0 mm 5 m/S 760 mmHg 25%
    13:00 +15°C° 0 mm 5 m/S 760 mmHg 25%
    14:00 +15°C° 0 mm 5 m/S 760 mmHg 25%
    15:00 +14°C° 0 mm 5 m/S 760 mmHg 26%
    16:00 +13°C° 0 mm 4 m/S 760 mmHg 28%
    17:00 +12°C° 0 mm 4 m/S 761 mmHg 29%
    18:00 +10°C° 0 mm 3 m/S 761 mmHg 33%
    19:00 +8°C° 0 mm 2 m/S 761 mmHg 37%
    20:00 +7°C° 0 mm 1 m/S 762 mmHg 41%
    21:00 +7°C° 0 mm 1 m/S 762 mmHg 43%
    22:00 +6°C° 0 mm 1 m/S 762 mmHg 44%
    23:00 +6°C° 0 mm 1 m/S 762 mmHg 46%

    9 April, Donnerstag

    Zeit Temperatur Niederschläge Wind Luftdruck Luftfeuchtigkeit
    00:00 +6°C° 0 mm 1 m/S 762 mmHg 49%
    01:00 +5°C° 0 mm 1 m/S 762 mmHg 52%
    02:00 +5°C° 0 mm 1 m/S 762 mmHg 55%
    03:00 +3°C° 0 mm 0 m/S 762 mmHg 58%
    04:00 +3°C° 0 mm 0 m/S 763 mmHg 60%
    05:00 +3°C° 0 mm 0 m/S 763 mmHg 62%
    06:00 +6°C° 0 mm 1 m/S 763 mmHg 54%
    07:00 +9°C° 0 mm 1 m/S 764 mmHg 47%
    08:00 +10°C° 0 mm 2 m/S 764 mmHg 39%
    09:00 +12°C° 0 mm 2 m/S 764 mmHg 35%
    10:00 +13°C° 0 mm 3 m/S 764 mmHg 31%
    11:00 +14°C° 0 mm 3 m/S 764 mmHg 27%
    12:00 +14°C° 0 mm 4 m/S 763 mmHg 27%
    13:00 +15°C° 0 mm 4 m/S 763 mmHg 26%
    14:00 +15°C° 0 mm 4 m/S 763 mmHg 26%
    15:00 +14°C° 0 mm 4 m/S 763 mmHg 30%
    16:00 +12°C° 0 mm 4 m/S 763 mmHg 34%
    17:00 +11°C° 0 mm 4 m/S 763 mmHg 39%
    18:00 +9°C° 0 mm 3 m/S 764 mmHg 46%
    19:00 +7°C° 0 mm 2 m/S 764 mmHg 53%
    20:00 +7°C° 0 mm 1 m/S 765 mmHg 61%
    21:00 +6°C° 0 mm 1 m/S 765 mmHg 63%
    22:00 +6°C° 0 mm 1 m/S 765 mmHg 65%
    23:00 +5°C° 0 mm 1 m/S 765 mmHg 67%

    10 April, Freitag

    Zeit Temperatur Niederschläge Wind Luftdruck Luftfeuchtigkeit
    00:00 +5°C° 0 mm 1 m/S 764 mmHg 66%
    01:00 +5°C° 0 mm 1 m/S 764 mmHg 66%
    02:00 +5°C° 0 mm 1 m/S 764 mmHg 66%
    03:00 +5°C° 0 mm 1 m/S 764 mmHg 67%
    04:00 +5°C° 0 mm 1 m/S 764 mmHg 68%
    05:00 +5°C° 0 mm 1 m/S 764 mmHg 69%
    06:00 +7°C° 0 mm 1 m/S 764 mmHg 61%
    07:00 +9°C° 0 mm 1 m/S 765 mmHg 52%
    08:00 +10°C° 0 mm 2 m/S 765 mmHg 44%
    09:00 +13°C° 0 mm 2 m/S 764 mmHg 40%
    10:00 +14°C° 0 mm 2 m/S 764 mmHg 36%
    11:00 +16°C° 0 mm 3 m/S 763 mmHg 32%
    12:00 +15°C° 0 mm 4 m/S 763 mmHg 33%
    13:00 +15°C° 0 mm 4 m/S 763 mmHg 34%
    14:00 +15°C° 0 mm 5 m/S 763 mmHg 34%
    15:00 +14°C° 0 mm 5 m/S 762 mmHg 37%
    16:00 +13°C° 0 mm 4 m/S 762 mmHg 40%
    17:00 +11°C° 0 mm 4 m/S 762 mmHg 43%
    18:00 +10°C° 0 mm 3 m/S 762 mmHg 51%
    19:00 +8°C° 0 mm 2 m/S 763 mmHg 60%
    20:00 +8°C° 0 mm 1 m/S 763 mmHg 68%
    21:00 +7°C° 0 mm 1 m/S 763 mmHg 72%
    22:00 +7°C° 0 mm 1 m/S 763 mmHg 76%
    23:00 +6°C° 0 mm 1 m/S 763 mmHg 80%
    Mehr zeigen